Weather in Xai-Xai

Mozambique     25°02′51″S   33°38′32″E
temp.,
°C
wind,
m/s
gust,
m/s
humid.,
%
clouds,
%
prec.,
mm/h
press.,
hPa
HPBL,
m
18 april, sun
sun1823:00+21ese2350100 0.0 102670
02:00+19se12668 0.0 102429
05:00+16nnw117576 0.0 102411
08:00+20wnw116288 0.0 1026187
11:00+25ese224647 0.1 10251722
14:00+23ese445691 0.1 1023748
17:00+21e47610 0.0 1022298
20:00+17ene37730 0.0 1023134
19 april, mon
mon1923:00+16ne36770 0.0 1023108
02:00+15nne25870 0.0 102281
05:00+15n22920 0.0 102230
08:00+20nnw22690 0.0 1022235
11:00+27nnw11410 0.0 10211404
14:00+28ese12350 0.0 10181641
17:00+22ese47690 0.0 1018258
20:00+20ene38820 0.0 1020157
20 april, tue
tue2023:00+17ne24830 0.0 102171
02:00+17ne11840 0.0 102111
05:00+17w118732 0.1 102113
08:00+23ssw246324 0.1 1023386
11:00+27sse44480 0.0 10221610
14:00+25sse4563100 0.7 10211171
17:00+23se46676 0.1 1021366
20:00+21se35746 0.1 1022101
21 april, wed
wed2123:00+21se24772 0.0 102266
02:00+20se11783 0.0 102111
05:00+20sw008475 0.2 102111
08:00+22nw117689 0.6 1022138
11:00+26se015885 0.2 10211213
14:00+26se426037 0.3 1019903
17:00+24ese36720 0.0 1019353
20:00+21ene37830 0.0 1019161
22 april, thu
thu2223:00+19ne25910 0.0 1019113
02:00+19ne23890 0.0 101950
05:00+18ne23900 0.0 102045
08:00+23nnw22712 0.0 1021281
11:00+29nnw22480 0.0 10191395
14:00+30ese23430 0.0 10161717
17:00+24e58730 0.0 1016352
20:00+21ne410810 0.0 1016270